Flag for Germany Weather past 2 weeks in Lehrte, Lower Saxony, Germany

Now
42 °F

Overcast.


Feels Like: 36 °F
Forecast: 35 / 39 °F
Wind: 9 mph from Southwest

Location: Hannover

Current Time: Jan 28, 2015 at 1:50:05 PM

Latest Report: Jan 28, 2015 at 1:00 PM


Visibility: 22 mi

Pressure: 29.66 "Hg

Humidity: 76%

Dew point: 35 °F

Location of LehrteLocation

Historic Weather in Lehrte — Graph

°F

Lehrte temperature yesterday

Maximum temperature yesterday: 41 °F (at 3:00 PM)
Minimum temperature yesterday: 35 °F (at 11:00 PM)
Average temperature yesterday: 38 °F

Past Weeks' High & Low Weather Summary

 TemperatureHumidityPressure
High53 °F (Jan 13, 2:00 PM)98% (Jan 20, 9:00 AM)30.34 "Hg (Jan 20, 9:00 AM)
Low23 °F (Jan 21, 7:00 AM)60% (Jan 16, 12:00 PM)29.44 "Hg (Jan 15, 5:00 PM)
Average36 °F84%29.96 "Hg
* Reported Jan 13 12:00 Noon — Jan 28 12:00 Noon, Lehrte, Weather by CustomWeather, © 2014

Note: Actual official high and low records may vary slightly from our data, if they occured in-between our weather recording intervals... More about our weather records

Advertising

Lehrte weather history for previous 24 hours

 ConditionsComfort  
Time TempWeatherWind HumidityBarometerVisibility
12:00 PM
Jan 28
42 °FPartly sunny.8 mph78%29.72 "Hg19 mi
11:00 AM40 °FOvercast.8 mph82%29.79 "Hg9 mi
9:00 AM39 °FRain. Overcast.6 mph83%29.89 "Hg9 mi
8:00 AM39 °FOvercast.7 mph84%29.91 "Hg11 mi
7:00 AM39 °FOvercast.6 mph85%29.93 "Hg12 mi
6:00 AM38 °FOvercast.5 mph89%29.96 "Hg10 mi
5:00 AM37 °FPassing clouds.5 mph91%29.99 "Hg7 mi
3:00 AM38 °FFog.3 mph95%30.05 "Hg4 mi
2:00 AM38 °FLow clouds.3 mph95%30.07 "Hg5 mi
1:00 AM36 °FLow clouds.3 mph96%30.08 "Hg5 mi
12:00 AM35 °FFog.3 mph97%30.10 "Hg4 mi
11:00 PM
Jan 27
35 °FFog.2 mph97%30.10 "Hg4 mi
9:00 PM36 °FPassing clouds.2 mph94%30.11 "Hg7 mi
8:00 PM36 °FPassing clouds.3 mph93%30.11 "Hg14 mi
7:00 PM36 °FPassing clouds.3 mph92%30.11 "Hg16 mi
6:00 PM38 °FPassing clouds.6 mph89%30.10 "Hg14 mi
5:00 PM38 °FPassing clouds.6 mph88%30.08 "Hg19 mi
3:00 PM41 °FPartly sunny.6 mph79%30.07 "Hg22 mi
2:00 PM41 °FPartly sunny.9 mph83%30.06 "Hg19 mi
1:00 PM41 °FPartly sunny.8 mph84%30.06 "Hg16 mi
Weather by CustomWeather, © 2014

See weather overviewHow to use our weather pages